• In Belarus
  • List of Countries
  • For 7 days
  • Water Temperature
  • Satellite Maps
  • Weather Map
  • Weather Widgets
  • user-avatar
    Login

    Hourly Weather Cobija

    Today, 20 February, Wednesday

    Time Temperature Precipitation Wind Pressure Humidity
    00:00 +26°C° 0.1 mm 1 mps 737 mmHg 97%
    01:00 +25°C° 0 mm 1 mps 738 mmHg 97%
    02:00 +25°C° 0.8 mm 1 mps 737 mmHg 98%
    03:00 +25°C° 0.8 mm 1 mps 737 mmHg 98%
    04:00 +25°C° 0.8 mm 1 mps 737 mmHg 98%
    05:00 +25°C° 3.3 mm 1 mps 738 mmHg 98%
    06:00 +25°C° 3.3 mm 1 mps 738 mmHg 98%
    07:00 +24°C° 0 mm 0 mps 739 mmHg 98%
    08:00 +25°C° 1.3 mm 0 mps 739 mmHg 96%
    09:00 +27°C° 1.3 mm 1 mps 739 mmHg 93%
    10:00 +28°C° 1.3 mm 1 mps 739 mmHg 91%
    11:00 +30°C° 0.6 mm 1 mps 739 mmHg 82%
    12:00 +31°C° 0.6 mm 1 mps 738 mmHg 72%
    13:00 +33°C° 0.6 mm 1 mps 737 mmHg 63%
    14:00 +33°C° 0 mm 1 mps 737 mmHg 60%
    15:00 +33°C° 0 mm 1 mps 736 mmHg 57%
    16:00 +34°C° 0 mm 1 mps 736 mmHg 55%
    17:00 +32°C° 0.2 mm 1 mps 736 mmHg 64%
    18:00 +30°C° 0.2 mm 1 mps 736 mmHg 74%
    19:00 +28°C° 0.2 mm 1 mps 736 mmHg 83%
    20:00 +27°C° 0.5 mm 1 mps 736 mmHg 87%
    21:00 +26°C° 0.5 mm 1 mps 737 mmHg 92%
    22:00 +26°C° 0.5 mm 1 mps 738 mmHg 96%
    23:00 +26°C° 0.1 mm 1 mps 738 mmHg 96%

    Tomorrow, 21 February, Thursday

    Time Temperature Precipitation Wind Pressure Humidity
    00:00 +26°C° 0.1 mm 1 mps 737 mmHg 97%
    01:00 +26°C° 0.1 mm 1 mps 737 mmHg 98%
    02:00 +25°C° 0 mm 1 mps 737 mmHg 98%
    03:00 +25°C° 0 mm 1 mps 737 mmHg 98%
    04:00 +23°C° 0 mm 0 mps 737 mmHg 98%
    05:00 +25°C° 0.1 mm 1 mps 738 mmHg 97%
    06:00 +26°C° 0.1 mm 1 mps 738 mmHg 97%
    07:00 +26°C° 0.1 mm 1 mps 739 mmHg 96%
    08:00 +27°C° 1.4 mm 1 mps 739 mmHg 96%
    09:00 +27°C° 1.4 mm 1 mps 740 mmHg 95%
    10:00 +28°C° 1.4 mm 1 mps 740 mmHg 94%
    11:00 +29°C° 1 mm 1 mps 740 mmHg 92%
    12:00 +29°C° 1 mm 1 mps 739 mmHg 90%
    13:00 +29°C° 1 mm 1 mps 738 mmHg 88%
    14:00 +29°C° 0.5 mm 1 mps 737 mmHg 88%
    15:00 +29°C° 0.5 mm 1 mps 736 mmHg 87%
    16:00 +29°C° 0.5 mm 1 mps 735 mmHg 86%
    17:00 +26°C° 0 mm 0 mps 736 mmHg 89%
    18:00 +25°C° 0 mm 0 mps 736 mmHg 92%
    19:00 +24°C° 0 mm 0 mps 736 mmHg 95%
    20:00 +24°C° 0 mm 0 mps 737 mmHg 95%
    21:00 +23°C° 0 mm 0 mps 737 mmHg 95%
    22:00 +23°C° 0 mm 0 mps 738 mmHg 94%
    23:00 +23°C° 0 mm 0 mps 738 mmHg 92%

    Day after tomorrow, 22 February, Friday

    Time Temperature Precipitation Wind Pressure Humidity
    00:00 +23°C° 0 mm 0 mps 738 mmHg 90%
    01:00 +23°C° 0 mm 0 mps 737 mmHg 88%
    02:00 +23°C° 0 mm 0 mps 737 mmHg 88%
    03:00 +23°C° 0 mm 0 mps 737 mmHg 88%
    04:00 +22°C° 0 mm 0 mps 737 mmHg 88%
    05:00 +23°C° 0.2 mm 0 mps 738 mmHg 88%
    06:00 +23°C° 0.2 mm 0 mps 738 mmHg 89%
    07:00 +25°C° 0.2 mm 1 mps 739 mmHg 89%
    08:00 +27°C° 0.8 mm 1 mps 739 mmHg 89%
    09:00 +28°C° 0.8 mm 1 mps 740 mmHg 89%
    10:00 +29°C° 0.8 mm 1 mps 740 mmHg 89%
    11:00 +30°C° 1.1 mm 1 mps 739 mmHg 85%
    12:00 +30°C° 1.1 mm 1 mps 739 mmHg 81%
    13:00 +31°C° 1.1 mm 1 mps 738 mmHg 77%
    14:00 +31°C° 0.5 mm 1 mps 737 mmHg 77%
    15:00 +31°C° 0.5 mm 1 mps 736 mmHg 78%
    16:00 +30°C° 0.5 mm 1 mps 735 mmHg 78%
    17:00 +29°C° 0 mm 1 mps 736 mmHg 83%
    18:00 +28°C° 0 mm 1 mps 736 mmHg 89%
    19:00 +26°C° 0 mm 1 mps 736 mmHg 95%
    20:00 +26°C° 0 mm 1 mps 737 mmHg 96%
    21:00 +25°C° 0 mm 1 mps 738 mmHg 97%
    22:00 +25°C° 0 mm 1 mps 739 mmHg 98%
    23:00 +25°C° 0 mm 1 mps 738 mmHg 98%

    23 February, Saturday

    Time Temperature Precipitation Wind Pressure Humidity
    00:00 +24°C° 0 mm 1 mps 738 mmHg 98%
    01:00 +24°C° 0 mm 1 mps 737 mmHg 98%
    02:00 +24°C° 0 mm 1 mps 737 mmHg 98%
    03:00 +24°C° 0 mm 1 mps 737 mmHg 98%
    04:00 +24°C° 0 mm 1 mps 737 mmHg 98%
    05:00 +22°C° 0 mm 0 mps 737 mmHg 95%
    06:00 +23°C° 0 mm 0 mps 738 mmHg 92%
    07:00 +24°C° 0 mm 0 mps 738 mmHg 89%
    08:00 +28°C° 0 mm 1 mps 739 mmHg 77%
    09:00 +31°C° 0 mm 1 mps 739 mmHg 66%
    10:00 +33°C° 0 mm 1 mps 739 mmHg 54%
    11:00 +34°C° 0 mm 1 mps 738 mmHg 50%
    12:00 +36°C° 0 mm 1 mps 737 mmHg 46%
    13:00 +37°C° 0 mm 1 mps 736 mmHg 42%
    14:00 +36°C° 0 mm 1 mps 735 mmHg 47%
    15:00 +35°C° 0 mm 1 mps 734 mmHg 51%
    16:00 +34°C° 0 mm 1 mps 733 mmHg 56%
    17:00 +32°C° 0 mm 1 mps 734 mmHg 64%
    18:00 +30°C° 0 mm 1 mps 734 mmHg 72%
    19:00 +28°C° 0 mm 1 mps 735 mmHg 79%
    20:00 +27°C° 0.9 mm 1 mps 736 mmHg 84%
    21:00 +26°C° 0.9 mm 1 mps 736 mmHg 89%
    22:00 +25°C° 0.9 mm 1 mps 737 mmHg 94%
    23:00 +25°C° 0.6 mm 1 mps 737 mmHg 96%

    24 February, Sunday

    Time Temperature Precipitation Wind Pressure Humidity
    00:00 +25°C° 0.6 mm 1 mps 736 mmHg 97%
    01:00 +24°C° 0.6 mm 1 mps 736 mmHg 99%
    02:00 +24°C° 1.4 mm 1 mps 736 mmHg 99%
    03:00 +24°C° 1.4 mm 1 mps 736 mmHg 99%
    04:00 +24°C° 1.4 mm 1 mps 736 mmHg 99%
    05:00 +24°C° 2.6 mm 1 mps 736 mmHg 99%
    06:00 +25°C° 2.6 mm 1 mps 737 mmHg 98%
    07:00 +25°C° 2.6 mm 1 mps 738 mmHg 98%
    08:00 +26°C° 2.1 mm 1 mps 738 mmHg 97%
    09:00 +27°C° 2.1 mm 1 mps 738 mmHg 96%
    10:00 +28°C° 2.1 mm 1 mps 738 mmHg 95%
    11:00 +29°C° 0.7 mm 2 mps 737 mmHg 88%
    12:00 +30°C° 0.7 mm 2 mps 736 mmHg 82%
    13:00 +31°C° 0.7 mm 2 mps 735 mmHg 76%
    14:00 +31°C° 0.7 mm 1 mps 734 mmHg 77%
    15:00 +31°C° 0.7 mm 1 mps 734 mmHg 78%
    16:00 +30°C° 0.7 mm 1 mps 733 mmHg 79%
    17:00 +29°C° 0.2 mm 1 mps 733 mmHg 83%
    18:00 +28°C° 0.2 mm 1 mps 734 mmHg 87%
    19:00 +27°C° 0.2 mm 1 mps 734 mmHg 90%
    20:00 +26°C° 0 mm 1 mps 735 mmHg 90%
    21:00 +26°C° 0 mm 1 mps 735 mmHg 89%
    22:00 +26°C° 0 mm 1 mps 736 mmHg 89%
    23:00 +26°C° 0 mm 1 mps 736 mmHg 88%

    25 February, Monday

    Time Temperature Precipitation Wind Pressure Humidity
    00:00 +26°C° 0 mm 1 mps 736 mmHg 87%
    01:00 +26°C° 0 mm 1 mps 735 mmHg 87%
    02:00 +25°C° 0 mm 1 mps 735 mmHg 88%
    03:00 +25°C° 0 mm 1 mps 735 mmHg 90%
    04:00 +25°C° 0 mm 1 mps 735 mmHg 92%
    05:00 +25°C° 0 mm 1 mps 736 mmHg 89%
    06:00 +26°C° 0 mm 2 mps 737 mmHg 86%
    07:00 +26°C° 0 mm 2 mps 737 mmHg 83%
    08:00 +28°C° 0 mm 2 mps 738 mmHg 75%
    09:00 +30°C° 0 mm 2 mps 738 mmHg 67%
    10:00 +33°C° 0 mm 3 mps 738 mmHg 60%
    11:00 +31°C° 0.9 mm 3 mps 737 mmHg 69%
    12:00 +30°C° 0.9 mm 2 mps 736 mmHg 77%
    13:00 +30°C° 0.9 mm 2 mps 736 mmHg 86%
    14:00 +30°C° 0.5 mm 2 mps 735 mmHg 84%
    15:00 +30°C° 0.5 mm 2 mps 734 mmHg 81%
    16:00 +30°C° 0.5 mm 2 mps 734 mmHg 79%
    17:00 +29°C° 0 mm 2 mps 734 mmHg 82%
    18:00 +28°C° 0 mm 2 mps 735 mmHg 86%
    19:00 +26°C° 0 mm 1 mps 735 mmHg 89%
    20:00 +26°C° 0 mm 1 mps 736 mmHg 90%
    21:00 +26°C° 0 mm 1 mps 737 mmHg 90%
    22:00 +25°C° 0 mm 1 mps 737 mmHg 90%
    23:00 +25°C° 0 mm 1 mps 737 mmHg 90%
    Show more